Regional Weather Roundup
Issued by NWS Sioux Falls, SD

Home | Current Version | Previous Version | Text Only | Print | Product List | Glossary On
Versions: 1 2 3 4 5 6 7 8 9 10 11 12 13 14 15 16 17 18 19 20 21 22 23 24 25 26 27 28 29 30 31 32 33 34 35 36 37 38 39 40 41 42 43 44 45 46 47 48 49 50
000
ASUS43 KFSD 030702
RWRFSD

WEATHER ROUNDUP FOR SE SOUTH DAKOTA/SW MINNESOTA/NW IOWA
NATIONAL WEATHER SERVICE SIOUX FALLS SD
200 AM CDT WED SEP 03 2014

NOTE: "FAIR" INDICATES FEW OR NO CLOUDS BELOW 12,000 FEET WITH NO
SIGNIFICANT WEATHER AND OR OBSTRUCTIONS TO VISIBILITY.


SDZ038>040-050-052>070-030800-
SOUTHEAST SOUTH DAKOTA

CITY           SKY/WX    TMP DP  RH WIND       PRES   REMARKS
CHAMBERLAIN    PTCLDY    68  60  75 S6        29.75F
HURON          MOCLDY    66  58  75 S9        29.77F
MADISON        FAIR      63  63 100 SE6       29.84F
MITCHELL       PTCLDY    66  59  78 S14       29.78F
SIOUX FALLS    CLEAR     66  57  72 S10       29.84F
WINNER         FAIR      71  61  70 S18       29.74F
YANKTON        PTCLDY    64  57  77 E7        29.84F
$$

MNZ071-072-080-081-089-090-097-098-030800-
SOUTHWEST MINNESOTA

CITY           SKY/WX    TMP DP  RH WIND       PRES   REMARKS
FAIRMONT       CLEAR     57  54  88 S6        29.92S
JACKSON        CLEAR     61  55  82 S8        29.92S
LUVERNE        MOCLDY    61  57  88 SE6       29.88F
MARSHALL       CLEAR     64  55  72 SW15      29.82F
MONTEVIDEO     CLEAR     61  55  82 SW8       29.83F
PIPESTONE      PTCLDY    61  55  82 SE6       29.86F
REDWOOD FALLS  CLEAR     62  57  83 S13       29.85F
TRACY          CLEAR     62  57  84 S13       29.86F
WINDOM         CLEAR     61  57  88 S6        29.90F
WORTHINGTON    PTCLDY    63  57  82 S13       29.90F
$$

IAZ001>003-012>014-020>022-031-032-NEZ013-014-SDZ071-030800-
NORTHWEST IOWA

CITY           SKY/WX    TMP DP  RH WIND       PRES   REMARKS
CHEROKEE       CLEAR     60  59  96 S3        29.90F
DENISON          N/A     63  59  88 CALM      29.91S
ESTHERVILLE    CLEAR     56  55  97 S8        29.92S
LE MARS          N/A     64  59  82 VRB6      29.88F
ORANGE CITY    PTCLDY    63  57  82 SE3       29.89F
SHELDON        PTCLDY    61  57  88 SE7       29.88F
SIOUX CITY     CLEAR     64  59  83 SE8       29.88F
SPENCER        CLEAR     59  56  89 SE7       29.91F
STORM LAKE     PTCLDY    59  59 100 SE7       29.92F
$$

ABBREVIATIONS USED IN REMARKS
   TC - TEMPERATURE IN CELSIUS
  WCI - WIND CHILL INDEX
   HX - HEAT INDEX
  VSB - VISIBILITY



USA.gov is the U.S. government's official web portal to all federal, state and local government web resources and services.